Probability
0 1 2 3 3 3 3 2 1 0 0 0 0 0 0 0 0 0 0 0 0 0 0 0 0 0 0 0 0 0 0 0 0 0 0 0 0 0
0 1 2 3 3 3 3 3 1 0 0 0 0 0 0 0 0 0 0 0 0 0 0 0 0 0 0 0 0 0 0 0 0 0 0 0 0 0
0 0 1 3 3 3 3 2 1 0 0 0 0 0 0 0 0 0 0 0 0 0 0 0 0 0 0 0 0 0 0 0 0 0 0 0 0 0
0 0 1 2 2 2 2 1 1 0 0 0 0 0 0 0 0 0 0 0 0 0 0 0 0 0 0 0 0 0 0 0 0 0 0 0 0 0
0 0 0 1 1 1 1 0 0 0 0 0 0 0 0 0 0 0 0 0 0 0 0 0 0 0 0 0 0 0 0 0 0 0 0 0 0 0
0 0 0 0 0 0 0 0 0 0 0 0 0 0 0 0 0 0 0 0 0 0 0 0 0 0 0 0 0 0 0 0 0 0 0 0 0 0
0 0 0 0 0 0 0 0 0 0 0 0 0 0 0 0 0 0 0 0 0 0 0 0 0 0 0 0 0 0 0 0 0 0 0 0 0 0
0 0 0 0 0 0 0 0 0 0 0 0 0 0 0 0 0 0 0 0 0 0 0 0 0 0 0 0 0 0 0 0 0 0 0 0 0 0
0 0 0 0 0 0 0 0 0 0 0 0 0 0 0 0 0 0 0 0 0 0 0 0 0 0 0 0 0 0 0 0 0 0 0 0 0 0
0 0 0 0 0 0 0 0 0 0 0 0 0 0 0 0 0 0 0 0 0 0 0 0 0 0 0 0 0 0 0 0 0 0 0 0 0 0
0 0 0 0 0 0 0 0 0 0 0 0 0 0 0 0 0 0 0 0 0 0 0 0 0 0 0 0 0 0 0 0 0 0 0 0 0 0
0 0 0 0 0 0 0 0 0 0 0 0 0 0 0 0 0 0 0 0 0 0 0 0 0 0 0 0 0 0 0 0 0 0 0 0 0 0
0 0 0 0 0 0 0 0 0 0 0 0 0 0 0 0 0 0 0 0 0 0 0 0 0 0 0 0 0 0 0 0 0 0 0 0 0 0
0 0 0 0 0 0 0 0 0 0 0 0 0 0 0 0 0 0 0 0 0 0 0 0 0 0 0 0 0 0 0 0 0 0 0 0 0 0
0 0 0 0 0 0 0 0 0 0 0 0 0 0 0 0 0 0 0 0 0 0 0 0 0 0 0 0 0 0 0 0 0 0 0 0 0 0
0 0 0 0 0 0 0 0 0 0 0 0 0 0 0 0 0 0 0 0 0 0 0 0 0 0 0 0 0 0 0 0 0 0 0 0 0 0
0 0 0 0 0 0 0 0 0 0 0 0 0 0 0 0 0 0 0 0 0 0 0 0 0 0 0 0 0 0 0 0 0 0 0 0 0 0
0 0 0 0 0 0 0 0 0 0 0 0 0 0 0 0 0 0 0 0 0 0 0 0 0 0 0 0 0 0 0 0 0 0 0 0 0 0
0 0 0 0 0 0 0 0 0 0 0 0 0 0 0 0 0 0 0 0 0 0 0 0 0 0 0 0 0 0 0 0 0 0 0 0 0 0
0 0 0 0 0 0 0 0 0 0 0 0 0 0 0 0 0 0 0 0 0 0 0 0 0 0 0 0 0 0 0 0 0 0 0 0 0 0
0 0 0 0 0 0 0 0 0 0 0 0 0 0 0 0 0 0 0 0 0 0 0 0 0 0 0 0 0 0 0 0 0 0 0 0 0 0
0 0 0 0 0 0 0 0 0 0 0 0 0 0 0 0 0 0 0 0 0 0 0 0 0 0 0 0 0 0 0 0 0 0 0 0 0 0
0 0 0 0 0 0 0 0 0 0 0 0 0 0 0 0 0 0 0 0 0 0 0 0 0 0 0 0 0 0 0 0 0 0 0 0 0 0
Wind_Speed
2 2 2 2 2 2 1 2 2 3 4 3 2 1 2 1 4 3 3 8 10 11 11 11 12 12 13 14 14 14 15 15 16 16 17 17 18 18
2 2 2 2 1 1 2 2 2 3 4 2 2 3 3 3 5 4 4 9 9 11 11 11 12 12 13 14 15 15 15 15 16 16 17 18 18 18
2 2 2 2 1 1 1 1 2 2 4 4 2 2 3 3 3 3 4 4 4 10 11 12 12 13 13 14 15 15 15 16 16 17 17 18 18 18
3 2 2 2 2 2 1 2 2 2 3 5 4 2 3 3 3 4 5 5 4 9 11 12 12 13 14 14 14 15 15 15 16 16 17 18 18 18
2 3 2 2 2 2 2 2 2 2 2 3 4 3 3 3 4 5 5 4 6 7 9 11 13 14 15 15 15 15 14 15 16 16 17 17 18 18
1 2 2 3 3 2 2 2 2 2 2 2 3 3 3 3 3 4 5 3 5 6 7 9 11 14 14 15 15 14 14 15 16 16 16 17 17 17
1 1 2 2 2 2 2 2 2 2 2 3 3 4 3 3 3 3 5 5 5 4 4 5 6 5 7 11 12 13 14 14 15 16 16 17 16 17
2 1 1 1 2 3 3 3 3 3 3 3 4 4 5 4 4 4 4 5 5 3 4 6 5 6 6 5 11 15 14 15 15 15 16 16 16 16
2 2 2 1 2 1 2 3 3 5 5 4 4 5 5 5 4 5 5 6 6 5 5 7 4 6 6 7 14 14 14 15 15 15 16 16 16 17
2 2 2 2 2 2 2 2 2 3 4 3 3 4 4 4 4 5 6 6 5 4 3 5 5 5 7 5 11 13 14 15 15 15 17 17 17 17
1 1 2 2 4 3 2 2 2 3 4 5 6 6 7 7 6 3 3 4 5 4 2 3 4 6 6 5 7 12 14 15 16 17 17 17 17 17
1 1 3 4 4 4 2 2 3 3 3 4 4 5 4 4 6 3 2 3 4 4 2 3 4 5 6 4 4 5 7 12 16 17 17 18 18 10
1 1 2 4 5 5 4 2 4 4 2 2 2 3 3 2 2 2 2 2 4 4 3 3 4 3 4 6 5 5 5 6 7 9 13 17 17 13
1 2 2 4 5 5 3 3 4 4 1 1 2 2 2 3 3 3 3 3 3 5 5 4 4 5 6 7 7 5 5 6 6 7 7 12 14 17
1 3 5 5 5 3 3 4 4 1 1 1 2 3 3 3 3 3 3 3 4 4 4 4 5 5 5 6 7 7 7 6 5 6 6 7 7 7
2 2 4 4 4 3 3 2 1 1 1 2 2 3 3 3 3 3 3 4 4 4 3 4 4 5 5 6 7 8 7 6 6 7 7 7 6 6
2 1 1 2 1 1 2 1 1 1 2 2 2 3 3 3 3 3 3 3 3 5 5 3 3 4 5 6 6 7 7 7 7 7 7 8 7 6
2 1 1 2 2 2 2 2 2 1 2 2 2 2 3 3 3 3 3 3 4 4 4 4 4 4 4 4 6 6 6 6 7 7 6 8 9 6
1 1 1 2 2 2 2 2 2 2 2 2 2 3 3 3 3 3 3 3 4 4 4 4 4 4 6 7 6 4 5 7 7 7 6 6 9 9
1 1 2 2 2 2 2 2 2 2 2 2 2 3 3 3 3 3 3 4 4 4 4 3 3 4 5 7 7 7 8 7 6 7 8 7 7 10
1 1 2 2 2 2 2 2 2 2 2 2 3 3 3 3 3 3 3 6 5 4 5 5 5 8 5 4 6 6 6 8 9 8 8 8 8 7
1 2 2 2 2 2 2 2 2 2 2 2 2 2 2 2 3 4 4 4 4 4 5 5 5 5 3 5 7 8 9 8 9 12 12 10 7 6
2 2 2 2 2 2 2 2 3 2 2 2 2 2 2 3 3 3 3 3 4 5 5 5 4 3 4 5 6 7 9 9 7 7 6 11 13 14
Wind_Direction
203 207 210 211 203 209 203 194 211 272 276 260 271 277 293 300 301 305 299 305 311 311 311 312 311 312 312 312 312 312 311 311 310 309 308 308 308 308
208 208 221 221 214 214 210 217 209 228 266 269 274 284 290 301 305 309 293 304 306 306 306 309 310 311 311 310 309 308 308 308 308 308 308 307 307 308
221 219 228 224 222 230 231 232 237 231 262 284 284 296 295 296 306 301 297 290 293 299 301 305 308 310 310 308 308 308 309 309 309 309 308 307 307 307
221 222 231 233 237 236 227 241 247 241 247 280 293 292 287 290 300 300 305 304 297 294 298 301 305 308 309 309 309 308 308 309 309 309 309 308 308 307
216 218 226 218 240 242 240 251 259 278 272 272 288 293 296 300 306 301 302 299 301 298 298 300 304 307 308 307 306 308 309 309 309 309 309 310 309 308
227 223 228 218 226 230 245 241 251 269 276 277 288 293 295 301 303 304 306 299 300 302 299 303 305 307 306 305 305 307 309 310 309 309 310 309 308 306
251 242 242 256 269 262 263 247 236 247 265 272 279 291 291 299 296 299 301 305 295 287 300 301 303 300 301 303 305 304 306 310 310 310 311 311 310 308
243 251 275 269 272 292 293 291 280 259 258 267 278 277 284 290 294 295 300 306 300 298 307 300 297 295 295 293 302 307 309 312 312 312 313 313 312 310
235 239 269 279 289 252 283 303 305 294 279 267 267 271 278 279 285 290 288 290 287 294 305 295 295 293 294 298 306 308 311 314 314 313 315 315 314 312
237 233 232 244 251 256 268 289 288 293 286 282 260 270 281 282 270 274 281 290 289 288 292 290 298 296 299 296 304 307 312 315 316 314 315 315 315 314
270 266 262 256 270 287 289 283 299 311 324 316 311 308 308 308 306 305 303 305 303 300 297 287 299 307 298 290 301 312 318 317 317 317 317 318 317 316
308 301 287 280 280 290 273 255 273 288 306 319 322 319 314 306 309 300 293 298 304 299 304 311 305 322 309 292 299 312 312 310 312 314 316 318 320 317
297 300 288 290 292 294 296 267 269 294 299 303 305 308 312 313 311 314 305 287 290 286 297 312 300 300 286 298 302 300 303 308 311 310 312 316 317 317
290 291 294 304 310 311 311 301 306 319 322 310 307 306 311 314 311 309 303 295 279 276 286 289 283 290 296 297 298 305 310 307 305 303 304 311 313 313
311 311 318 321 323 320 315 318 322 327 307 301 297 297 295 295 304 308 308 302 294 286 282 279 278 286 286 288 294 300 307 304 295 302 307 307 306 308
336 322 325 327 327 324 329 332 329 295 297 286 292 295 303 308 310 311 312 319 314 304 286 280 279 278 284 283 285 292 296 298 309 309 306 301 300 299
329 339 337 328 328 332 330 331 330 323 312 305 301 308 311 311 308 311 309 313 307 309 312 307 288 276 272 277 285 287 293 294 297 306 309 307 303 299
333 322 315 315 307 307 310 315 316 305 301 301 303 303 306 308 310 310 311 309 307 310 313 316 320 319 310 279 248 275 288 295 303 307 307 306 308 308
341 312 299 298 300 303 301 301 303 302 298 296 298 300 303 304 307 311 315 315 311 311 313 316 321 323 321 317 299 269 294 304 308 309 306 300 301 305
327 304 305 302 299 301 303 306 307 307 305 304 302 301 301 304 309 314 313 313 311 311 313 313 313 310 300 299 297 297 294 294 303 306 306 300 291 291
315 311 308 304 300 303 305 304 302 299 302 305 302 301 305 309 311 313 311 311 314 312 312 311 301 307 296 292 295 298 298 294 296 298 304 305 305 306
305 303 304 299 297 293 293 296 299 298 302 305 305 307 307 306 306 308 310 311 309 306 304 303 304 309 307 302 301 304 308 309 304 300 293 291 300 307
295 297 302 302 296 289 289 289 289 292 297 297 298 302 304 304 304 303 304 304 306 307 309 310 312 306 298 295 298 302 307 313 315 318 310 311 308 300